THOR ABLESTAR DEB, 549

Orbit data source: Space-Track

THOR ABLESTAR DEB, 549 is space debris in LEO originally from a launch on Thu, 29 Jun 1961 UTC launched from the Air Force Eastern Test Range (AFETR). Debris objects in space refer to the collection of defunct objects orbiting the Earth. Examples of debris include non-operational satellites, rocket bodies, and fragments generated from explosions, collisions, or faulty payload assembly.

Loading next visibility...
Identifier
549, 1961-015GJ
Orbit
LEO
Country
Flag of USUS
Related business
Manufacturer
Unknown
Mission
Spacecraft
Bus & Motor
Unknown
Mass
Unknown
Launch date (UTC)
1961-06-29 (64 years ago)
Launch vehicle
Unknown
Launch site
Air Force Eastern Test Range (AFETR)
Object type
Payload
Rocket body
Debris
Shape & HBR
Unknown shape, 0.1 m
Radar Cross Section
Small (<0.1 m²)

Expand to show TLE details & history
Last TLE update: 21 hours ago

TLE from 21 hours ago
0 THOR ABLESTAR DEB
1   549U 61015GJ  25353.25351916  .00000117  00000-0  31552-3 0  9999
2   549  66.6953 298.0817 0207609  79.4918 353.1482 13.36404639138874
Epoch: 2025-12-19T06:05Z
TLE epoch observation values (Epoch: 2025-12-19T06:05:04.055Z)
Latitude
61.18029°
Longitude
169.87131°
Altitude
977.731 km
Speed
7.445 km/s
True Right ascension
23h 16m 56s
True Declination
61° 02' 21"
Sunlit
Object was in daylight at epoch
Visualization orbit readout
Latitude
Unknown
Longitude
Unknown
Altitude
Unknown
Speed
Unknown
Apparent Right ascension
Unknown
Apparent Declination
Unknown
Sunlit
N/A
Visualization observer readout
Local Sidereal Time
01:32:55
Azimuth
Unknown
Elevation
Unknown
Doppler factor
Unknown
Orbital elements
Apogee altitude
1,276.841 km
Perigee altitude
965.457 km
Semi-major axis
7,499.286 km
Eccentricity
0.02076
Inclination
66.6953°
RAAN
298.0817°
Arg. of periapsis
79.4918°
True anomaly
352.85688°
Mean anomaly
353.1482°
Eccentric anomaly
353.0033°
Mean motion
3.34205 °/min
Orbital period
107.72 mins
BSTAR
0.00031552
Loading maneuver chart data...
Computing Atmospheric mass density...

Documentation

Showing up to 5 results
|